Theta_e
318 315 308 309 313 314 317 328 330 332 336 336 337 344 346 348 349 342 344 348 355 362 362 363 363 362 362 361 361 359 359 358
313 308 311 311 314 314 328 333 335 333 330 341 347 343 345 350 348 343 342 346 359 362 362 362 361 362 362 361 360 360 358 358
310 308 311 314 316 315 327 330 332 332 330 336 348 348 347 350 348 342 343 347 356 361 362 361 360 361 361 361 360 360 359 358
307 308 311 315 316 318 325 331 332 332 331 338 351 345 347 350 349 344 344 346 352 361 362 361 360 361 361 361 360 360 360 360
308 307 310 311 317 318 327 330 332 337 329 340 347 349 349 351 351 347 346 346 352 354 359 361 360 360 360 360 361 360 360 360
308 307 307 312 315 318 328 329 340 340 329 332 348 353 348 349 350 349 347 346 349 351 351 353 355 359 359 359 359 360 360 359
306 307 308 314 312 316 320 327 335 337 335 341 352 354 349 347 347 349 348 348 348 348 349 350 351 354 357 356 356 357 357 358
309 311 311 313 313 313 314 318 323 329 339 343 350 352 346 345 344 346 347 348 349 349 348 349 349 354 352 350 349 348 349 354
310 312 314 312 313 314 312 312 317 317 324 339 346 350 346 344 344 345 348 350 350 353 353 350 349 352 350 350 349 350 350 351
312 313 313 312 313 312 313 315 317 321 328 337 343 347 346 343 344 344 346 349 352 354 356 354 349 349 351 350 349 349 350 353
313 314 314 314 312 312 313 318 323 326 332 336 341 346 348 346 346 348 347 350 351 355 357 357 356 351 352 351 350 350 349 352
313 313 314 312 312 312 317 319 323 326 328 333 338 343 348 347 347 348 350 350 352 354 359 358 358 358 354 353 351 351 350 350
311 313 312 314 310 311 320 319 318 320 322 331 336 341 343 346 348 350 351 351 351 355 357 360 359 358 357 355 351 350 350 354
311 312 313 312 307 314 320 321 321 323 325 320 331 340 344 346 349 351 352 351 351 349 353 359 358 357 355 355 355 352 352 352
306 312 311 311 309 315 320 322 323 327 329 326 334 342 345 348 349 350 348 351 353 354 351 353 359 357 357 357 355 354 353 351
305 309 310 309 309 316 319 321 323 327 330 332 333 334 341 344 348 349 347 347 349 351 353 354 354 355 352 352 352 351 350 349
306 310 308 309 309 314 319 321 322 325 328 332 335 339 340 342 346 346 348 348 348 351 352 350 347 345 345 345 348 348 347 348
307 309 309 309 308 315 318 320 322 323 324 326 329 329 331 334 336 336 341 345 347 348 353 353 348 349 349 349 350 353 353 352
305 308 310 308 306 311 316 320 323 323 323 324 323 326 329 331 334 335 335 338 341 344 347 352 354 353 353 354 348 348 346 343
305 304 300 308 299 308 313 316 319 320 321 322 324 326 328 330 332 335 337 340 340 342 343 345 349 350 350 346 342 342 339 341
Wind_Speed
6 3 9 7 11 10 6 3 8 5 4 4 5 5 4 8 17 19 17 17 16 15 14 15 15 14 13 13 13 14 15 15
8 6 9 7 9 8 6 6 4 3 7 6 6 3 2 15 19 18 17 17 19 15 15 14 15 15 14 14 13 14 14 14
4 6 6 8 10 3 5 7 7 2 7 4 4 5 10 17 16 16 16 15 19 15 14 13 14 13 13 13 13 13 13 14
8 8 6 9 9 3 5 6 7 6 4 7 7 9 13 15 16 15 14 14 17 14 13 14 14 14 12 11 12 12 12 12
4 7 8 8 7 6 2 5 6 3 2 5 8 10 14 13 14 14 14 13 14 15 13 11 11 13 13 13 13 12 11 10
3 6 9 7 6 4 1 5 4 3 3 6 11 13 14 13 14 14 14 13 14 14 15 14 13 12 12 11 11 10 10 11
6 7 5 5 6 6 3 1 2 3 2 5 13 14 15 13 14 13 13 13 13 14 15 14 14 13 12 12 11 10 10 9
3 3 3 4 5 5 3 3 6 6 4 5 12 13 15 15 15 15 15 15 13 13 13 12 9 12 11 11 10 10 10 11
6 2 5 5 4 2 4 5 9 6 6 7 10 13 14 14 14 16 16 13 14 12 10 11 9 7 7 6 7 7 9 8
4 2 4 5 3 4 3 9 7 6 5 6 10 13 14 13 12 13 14 14 15 15 12 11 8 8 7 7 7 7 9 11
5 3 3 2 3 2 4 10 8 5 1 4 8 11 11 11 9 8 9 11 12 12 11 10 9 6 6 6 6 6 6 9
5 3 4 6 3 5 10 9 4 3 5 5 7 8 9 8 6 4 7 8 10 11 10 10 8 7 5 6 6 7 6 6
8 7 5 4 10 5 7 5 5 6 6 7 8 7 6 3 4 6 7 7 8 10 10 9 9 8 8 6 7 6 6 6
9 9 5 8 12 7 6 6 8 9 9 7 5 2 3 3 1 3 5 6 7 8 11 11 9 7 7 7 6 6 6 6
10 6 0 8 9 7 4 5 7 10 12 12 8 11 11 5 2 3 2 6 7 8 10 11 10 8 8 7 6 6 6 6
8 10 9 8 4 6 4 4 6 8 10 12 11 10 8 7 4 3 3 4 5 6 6 7 7 7 6 6 7 6 6 7
5 4 7 11 5 5 5 2 4 7 9 11 11 11 11 10 8 5 5 4 4 6 6 7 6 7 7 7 7 6 6 5
5 4 7 8 10 8 5 4 5 5 8 9 10 10 10 10 9 8 6 6 6 4 4 6 5 5 3 4 4 7 9 10
9 7 9 9 14 14 10 8 8 7 6 7 7 8 9 10 10 9 9 9 9 8 6 4 3 4 5 7 7 7 9 7
8 9 10 7 11 15 15 12 7 7 6 6 6 6 8 9 10 9 9 7 6 7 5 6 5 4 2 4 6 6 4 5
Wind_Direction
297 305 47 36 16 2 355 125 165 138 279 19 38 72 130 103 160 154 153 156 144 160 156 154 151 146 142 139 137 137 134 130
241 70 63 16 1 357 142 139 156 77 99 113 48 20 105 148 156 153 157 156 135 159 157 157 157 150 143 140 142 141 140 137
125 90 55 28 8 353 189 138 142 238 104 73 74 79 129 148 158 166 158 157 153 158 156 158 157 151 146 144 145 143 146 143
166 110 79 57 9 120 197 158 130 134 124 81 114 126 142 155 164 166 158 156 149 154 158 158 158 153 151 150 149 150 153 152
127 114 95 31 7 31 204 160 130 56 162 89 155 132 152 164 167 167 162 168 155 165 161 160 158 158 158 158 157 157 158 155
210 174 89 34 8 39 244 111 59 279 162 136 149 151 160 173 174 175 170 174 166 172 171 174 166 169 168 162 158 160 161 163
137 204 88 43 359 63 55 209 211 153 15 61 130 156 168 172 181 183 179 179 180 180 175 186 170 168 172 170 166 167 172 177
39 55 333 334 334 355 250 142 152 175 115 129 157 177 181 183 184 188 183 185 187 191 182 192 177 161 192 177 189 192 189 180
148 357 319 313 252 332 276 208 45 9 62 173 184 192 197 193 190 191 186 190 195 188 189 202 193 180 190 186 191 192 199 197
119 146 292 289 322 219 264 26 352 322 333 184 199 201 205 201 193 190 189 191 193 186 189 209 197 193 197 205 195 201 197 194
211 235 273 293 228 352 49 353 325 325 287 245 226 219 211 202 203 191 198 194 207 196 191 201 213 197 224 222 207 216 207 198
229 229 165 257 150 227 35 341 345 320 279 238 252 234 220 217 201 197 210 210 204 196 191 205 215 230 221 224 232 230 220 221
210 187 157 263 178 72 2 350 7 356 335 290 250 257 262 211 210 209 209 223 193 197 194 206 209 215 222 238 226 230 228 210
142 190 148 221 154 85 21 7 26 16 13 356 295 251 319 271 283 252 236 182 201 201 188 198 214 216 226 220 224 226 228 226
162 186 345 229 138 98 39 35 40 30 30 32 37 58 26 336 285 121 197 187 197 199 210 197 193 215 217 224 216 228 218 222
213 175 223 221 197 124 78 57 52 41 38 48 52 37 34 19 56 121 132 128 167 199 191 199 195 196 206 206 210 215 220 230
200 169 247 237 244 149 132 108 75 54 38 41 45 51 48 44 31 53 72 124 166 181 178 199 195 198 193 200 188 194 209 213
214 181 247 206 232 170 150 111 76 53 55 49 42 47 54 63 65 67 74 75 79 92 175 214 211 231 226 169 135 74 66 71
256 169 232 258 241 192 165 145 118 86 75 64 48 54 57 66 72 62 61 64 66 63 60 37 96 156 164 92 111 142 132 116
227 239 254 192 272 175 170 167 159 125 106 92 94 89 79 76 76 76 68 86 61 51 68 67 41 68 106 143 150 119 104 100